When you browse on this site, cookies collect data to enhance your experience and personalize the content and advertising you see.
Visit our Privacy Policy to learn more. By continuing to use the site, you agree to this use of cookies and data.
  • In Switzerland
  • List of Countries
  • For 7 days
  • Water Temperature
  • Weather Map
  • Weather Widgets
  • user-avatar
    Login

    Hourly Weather Kryuchok

    Today, 23 September, Monday

    Time Temperature Precipitation Wind Pressure Humidity
    00:00 +1°C° 0 mm 6 mps 740 mmHg 83%
    01:00 -1°C° 0 mm 6 mps 741 mmHg 85%
    02:00 -1°C° 0 mm 6 mps 741 mmHg 86%
    03:00 0°C° 0 mm 5 mps 742 mmHg 89%
    04:00 0°C° 0 mm 5 mps 742 mmHg 86%
    05:00 +1°C° 0 mm 5 mps 743 mmHg 82%
    06:00 +1°C° 0 mm 5 mps 743 mmHg 79%
    07:00 +2°C° 0 mm 5 mps 744 mmHg 75%
    08:00 +2°C° 0 mm 6 mps 745 mmHg 72%
    09:00 +3°C° 0 mm 6 mps 745 mmHg 67%
    10:00 +4°C° 0 mm 6 mps 746 mmHg 65%
    11:00 +5°C° 0 mm 6 mps 746 mmHg 62%
    12:00 +7°C° 0 mm 6 mps 746 mmHg 60%
    13:00 +7°C° 0 mm 6 mps 746 mmHg 59%
    14:00 +7°C° 0 mm 6 mps 746 mmHg 58%
    15:00 +8°C° 0 mm 6 mps 746 mmHg 57%
    16:00 +7°C° 0 mm 5 mps 747 mmHg 60%
    17:00 +6°C° 0 mm 5 mps 747 mmHg 63%
    18:00 +6°C° 0 mm 4 mps 747 mmHg 65%
    19:00 +5°C° 0 mm 4 mps 747 mmHg 67%
    20:00 +5°C° 0 mm 4 mps 748 mmHg 69%
    21:00 +4°C° 0 mm 4 mps 748 mmHg 70%
    22:00 +3°C° 0 mm 3 mps 748 mmHg 73%
    23:00 +2°C° 0 mm 3 mps 748 mmHg 75%

    Tomorrow, 24 September, Tuesday

    Time Temperature Precipitation Wind Pressure Humidity
    00:00 +3°C° 0 mm 2 mps 748 mmHg 78%
    01:00 +2°C° 0 mm 2 mps 748 mmHg 78%
    02:00 +2°C° 0 mm 2 mps 749 mmHg 79%
    03:00 +1°C° 0 mm 3 mps 749 mmHg 79%
    04:00 0°C° 0 mm 3 mps 749 mmHg 80%
    05:00 0°C° 0 mm 3 mps 749 mmHg 81%
    06:00 0°C° 0 mm 3 mps 749 mmHg 82%
    07:00 +1°C° 0 mm 3 mps 749 mmHg 76%
    08:00 +2°C° 0 mm 3 mps 749 mmHg 70%
    09:00 +4°C° 0 mm 4 mps 749 mmHg 65%
    10:00 +4°C° 0 mm 4 mps 749 mmHg 62%
    11:00 +5°C° 0 mm 4 mps 749 mmHg 59%
    12:00 +6°C° 0 mm 4 mps 749 mmHg 57%
    13:00 +6°C° 0.1 mm 4 mps 749 mmHg 58%
    14:00 +6°C° 0.1 mm 4 mps 748 mmHg 58%
    15:00 +6°C° 0.1 mm 4 mps 748 mmHg 59%
    16:00 +6°C° 0 mm 4 mps 748 mmHg 61%
    17:00 +5°C° 0 mm 3 mps 748 mmHg 64%
    18:00 +4°C° 0 mm 3 mps 748 mmHg 66%
    19:00 +4°C° 0 mm 3 mps 748 mmHg 70%
    20:00 +4°C° 0 mm 2 mps 749 mmHg 73%
    21:00 +3°C° 0 mm 2 mps 749 mmHg 77%
    22:00 +3°C° 0 mm 2 mps 749 mmHg 80%
    23:00 +2°C° 0 mm 2 mps 749 mmHg 83%

    Day after tomorrow, 25 September, Wednesday

    Time Temperature Precipitation Wind Pressure Humidity
    00:00 +2°C° 0 mm 2 mps 749 mmHg 85%
    01:00 +2°C° 0 mm 2 mps 749 mmHg 87%
    02:00 +1°C° 0 mm 2 mps 749 mmHg 88%
    03:00 +1°C° 0 mm 2 mps 749 mmHg 90%
    04:00 +1°C° 0 mm 2 mps 749 mmHg 91%
    05:00 +1°C° 0 mm 2 mps 749 mmHg 92%
    06:00 -1°C° 0 mm 2 mps 749 mmHg 92%
    07:00 +2°C° 0 mm 2 mps 749 mmHg 86%
    08:00 +3°C° 0 mm 2 mps 750 mmHg 80%
    09:00 +5°C° 0 mm 2 mps 750 mmHg 74%
    10:00 +6°C° 0 mm 2 mps 750 mmHg 68%
    11:00 +7°C° 0 mm 2 mps 750 mmHg 63%
    12:00 +8°C° 0 mm 3 mps 750 mmHg 57%
    13:00 +9°C° 0.1 mm 3 mps 750 mmHg 56%
    14:00 +9°C° 0.1 mm 3 mps 750 mmHg 55%
    15:00 +9°C° 0.1 mm 3 mps 749 mmHg 54%
    16:00 +8°C° 0 mm 3 mps 749 mmHg 59%
    17:00 +8°C° 0 mm 2 mps 749 mmHg 63%
    18:00 +7°C° 0 mm 2 mps 749 mmHg 68%
    19:00 +7°C° 0 mm 1 mps 749 mmHg 69%
    20:00 +7°C° 0 mm 1 mps 749 mmHg 70%
    21:00 +7°C° 0 mm 1 mps 749 mmHg 72%
    22:00 +6°C° 0 mm 1 mps 749 mmHg 73%
    23:00 +6°C° 0 mm 1 mps 749 mmHg 73%

    26 September, Thursday

    Time Temperature Precipitation Wind Pressure Humidity
    00:00 +6°C° 0 mm 1 mps 749 mmHg 74%
    01:00 +6°C° 0 mm 1 mps 749 mmHg 75%
    02:00 +6°C° 0 mm 1 mps 749 mmHg 76%
    03:00 +5°C° 0 mm 2 mps 749 mmHg 77%
    04:00 +5°C° 0 mm 1 mps 749 mmHg 80%
    05:00 +5°C° 0 mm 1 mps 749 mmHg 82%
    06:00 +5°C° 0 mm 1 mps 749 mmHg 85%
    07:00 +6°C° 0 mm 1 mps 749 mmHg 81%
    08:00 +7°C° 0 mm 1 mps 749 mmHg 76%
    09:00 +8°C° 0 mm 1 mps 749 mmHg 72%
    10:00 +9°C° 0 mm 1 mps 749 mmHg 66%
    11:00 +10°C° 0 mm 1 mps 749 mmHg 60%
    12:00 +11°C° 0 mm 1 mps 750 mmHg 55%
    13:00 +11°C° 0 mm 1 mps 749 mmHg 54%
    14:00 +11°C° 0 mm 1 mps 749 mmHg 52%
    15:00 +10°C° 0 mm 2 mps 749 mmHg 51%
    16:00 +11°C° 0 mm 1 mps 749 mmHg 54%
    17:00 +10°C° 0 mm 1 mps 749 mmHg 56%
    18:00 +10°C° 0 mm 1 mps 749 mmHg 59%
    19:00 +9°C° 0 mm 1 mps 749 mmHg 60%
    20:00 +9°C° 0 mm 1 mps 749 mmHg 62%
    21:00 +9°C° 0 mm 1 mps 749 mmHg 63%
    22:00 +8°C° 0 mm 1 mps 749 mmHg 65%
    23:00 +8°C° 0 mm 1 mps 749 mmHg 66%

    27 September, Friday

    Time Temperature Precipitation Wind Pressure Humidity
    00:00 +7°C° 0 mm 1 mps 749 mmHg 68%
    01:00 +6°C° 0 mm 0 mps 749 mmHg 68%
    02:00 +6°C° 0 mm 0 mps 749 mmHg 68%
    03:00 +6°C° 0 mm 0 mps 749 mmHg 68%
    04:00 +5°C° 0 mm 0 mps 749 mmHg 71%
    05:00 +6°C° 0 mm 1 mps 749 mmHg 74%
    06:00 +5°C° 0 mm 1 mps 749 mmHg 77%
    07:00 +6°C° 0 mm 1 mps 749 mmHg 73%
    08:00 +6°C° 0 mm 2 mps 749 mmHg 68%
    09:00 +7°C° 0 mm 2 mps 748 mmHg 64%
    10:00 +9°C° 0 mm 3 mps 749 mmHg 60%
    11:00 +10°C° 0 mm 3 mps 749 mmHg 56%
    12:00 +11°C° 0 mm 3 mps 749 mmHg 51%
    13:00 +11°C° 0 mm 3 mps 748 mmHg 52%
    14:00 +11°C° 0 mm 4 mps 748 mmHg 53%
    15:00 +12°C° 0 mm 4 mps 748 mmHg 54%
    16:00 +11°C° 0 mm 3 mps 748 mmHg 59%
    17:00 +10°C° 0 mm 3 mps 748 mmHg 65%
    18:00 +9°C° 0 mm 2 mps 748 mmHg 70%
    19:00 +9°C° 0 mm 2 mps 748 mmHg 72%
    20:00 +8°C° 0 mm 2 mps 749 mmHg 75%
    21:00 +8°C° 0 mm 2 mps 749 mmHg 77%
    22:00 +7°C° 0 mm 2 mps 749 mmHg 80%
    23:00 +7°C° 0 mm 2 mps 749 mmHg 82%

    28 September, Saturday

    Time Temperature Precipitation Wind Pressure Humidity
    00:00 +7°C° 0 mm 2 mps 750 mmHg 84%
    01:00 +7°C° 0 mm 2 mps 750 mmHg 86%
    02:00 +6°C° 0 mm 2 mps 750 mmHg 88%
    03:00 +6°C° 0 mm 2 mps 750 mmHg 89%
    04:00 +6°C° 0 mm 2 mps 750 mmHg 91%
    05:00 +5°C° 0 mm 2 mps 750 mmHg 93%
    06:00 +5°C° 0 mm 2 mps 750 mmHg 94%
    07:00 +6°C° 0 mm 2 mps 750 mmHg 90%
    08:00 +7°C° 0 mm 2 mps 751 mmHg 86%
    09:00 +8°C° 0 mm 2 mps 751 mmHg 81%
    10:00 +10°C° 0 mm 1 mps 751 mmHg 75%
    11:00 +11°C° 0 mm 1 mps 751 mmHg 69%
    12:00 +12°C° 0 mm 1 mps 751 mmHg 64%
    13:00 +13°C° 0 mm 1 mps 751 mmHg 62%
    14:00 +13°C° 0 mm 2 mps 751 mmHg 60%
    15:00 +14°C° 0 mm 2 mps 751 mmHg 59%
    16:00 +13°C° 0 mm 1 mps 751 mmHg 62%
    17:00 +13°C° 0 mm 1 mps 751 mmHg 64%
    18:00 +12°C° 0 mm 1 mps 751 mmHg 67%
    19:00 +12°C° 0 mm 1 mps 751 mmHg 68%
    20:00 +12°C° 0 mm 1 mps 751 mmHg 68%
    21:00 +11°C° 0 mm 1 mps 751 mmHg 68%
    22:00 +10°C° 0 mm 2 mps 751 mmHg 67%
    23:00 +10°C° 0 mm 2 mps 751 mmHg 67%
    Show more